This demonstration page uses our WeatherBlox Daily Observations layout. Learn more.

Left ArrowRight Arrow

39.08367, -84.50855

Hourly Observations for August 31, 2020

Temp ( °F °C ) Dew Point ( °F °C ) Humidity (%) Winds ( mph kmh ) Pressure ( in mb ) Visibility ( mi km ) Precip ( " mm )
12:53 am 00:53 Clear 63 17.2 60 15.6 90 90 N N/A 29.88 1012 10 16 N/A
1:53 am 01:53 Clear 66 18.9 58 14.4 75 75 NNE 5 7 29.86 1011 10 16 N/A
2:53 am 02:53 Mostly Cloudy 66 18.9 59 15 78 78 NE 5 7 29.85 1011 10 16 N/A
3:53 am 03:53 Cloudy with Light Rain 66 18.9 60 15.6 81 81 N N/A 29.86 1011 10 16 0.00 0.00
4:53 am 04:53 Cloudy 66 18.9 60 15.6 81 81 N N/A 29.86 1011 10 16 0.00 0.00
5:53 am 05:53 Cloudy 66 18.9 61 16.1 84 84 N N/A 29.86 1011 10 16 N/A
6:43 am 06:43 Cloudy 65 18.3 61 16.1 87 87 N N/A 29.86 1011 10 16 N/A
6:53 am 06:53 Cloudy 65 18.3 62 16.7 90 90 E 3 6 29.86 1011 10 16 N/A
7:53 am 07:53 Cloudy 66 18.9 62 16.7 87 87 NE 3 6 29.88 1012 10 16 N/A
8:30 am 08:30 Cloudy 66 18.9 62 16.7 87 87 NE 5 7 29.88 1012 10 16 N/A
8:53 am 08:53 Cloudy 67 19.4 62 16.7 84 84 NE 5 7 29.89 1012 10 16 N/A
9:53 am 09:53 Cloudy 68 20 63 17.2 84 84 VRB 3 6 29.88 1012 10 16 N/A
10:53 am 10:53 Cloudy 70 21.1 64 17.8 82 82 SE 3 6 29.88 1012 10 16 N/A
11:53 am 11:53 Cloudy 71 21.7 65 18.3 81 81 N N/A 29.86 1011 10 16 N/A
12:53 pm 12:53 Cloudy 72 22.2 66 18.9 82 82 S 3 6 29.86 1011 10 16 N/A
1:23 pm 13:23 Cloudy 73 22.8 66 18.9 79 79 S 6 9 29.85 1011 10 16 N/A
1:53 pm 13:53 Cloudy 75 23.9 67 19.4 76 76 VRB 5 7 29.86 1011 10 16 N/A
2:53 pm 14:53 Cloudy 76 24.4 67 19.4 74 74 SSW 5 7 29.85 1011 9 14 N/A
3:53 pm 15:53 Partly Cloudy 79 26.1 69 20.6 72 72 N N/A 29.83 1010 10 16 N/A
4:24 pm 16:24 Mostly Cloudy 80 26.7 69 20.6 69 69 VRB 5 7 29.80 1009 10 16 N/A
4:46 pm 16:46 Partly Cloudy 78 25.6 68 20 71 71 SE 5 7 29.79 1009 10 16 N/A
4:53 pm 16:53 Mostly Cloudy 79 26.1 67 19.4 67 67 undefined N/A 29.80 1009 10 16 N/A
5:53 pm 17:53 Mostly Cloudy 79 26.1 69 20.6 72 72 SSW 9 15 29.82 1010 10 16 N/A
6:53 pm 18:53 Mostly Cloudy 77 25 69 20.6 77 77 S 6 9 29.85 1011 10 16 N/A
7:53 pm 19:53 Mostly Cloudy 75 23.9 69 20.6 82 82 SSE 6 9 29.85 1011 10 16 N/A
8:53 pm 20:53 Clear 73 22.8 69 20.6 87 87 N N/A 29.85 1011 10 16 N/A
9:53 pm 21:53 Clear 71 21.7 69 20.6 94 94 N 3 6 29.85 1011 10 16 N/A
10:53 pm 22:53 Clear 70 21.1 68 20 93 93 SE 3 6 29.86 1011 10 16 N/A
11:53 pm 23:53 Clear 69 20.6 68 20 96 96 N N/A 29.90 1013 9 14 N/A

Powered by AerisWeather